Wetbulb
51.87 52.30 53.25 52.93 51.94 52.11 51.16 52.17 49.64 51.91 52.57 57.09 59.93 62.25 61.82 64.36 65.37 65.15 67.96 69.46 71.65 72.78 73.09 72.39 72.69 72.97 73.37 74.03 74.48 75.13 75.86 76.48 76.76 77.82 77.92 78.15 77.86 78.37 78.42 78.08 77.77 77.22 75.62 74.22
50.91 53.03 52.77 51.58 53.40 52.64 51.93 52.11 52.52 52.77 52.60 57.82 59.88 61.94 62.77 62.91 63.18 65.00 65.79 67.22 70.55 72.07 75.49 75.55 73.57 73.16 73.14 73.36 73.69 74.63 74.57 75.15 76.43 77.24 77.89 77.41 77.92 77.77 78.30 78.16 78.16 77.21 75.73 73.77
48.31 51.84 51.97 49.33 52.58 53.47 53.58 52.81 52.59 50.29 54.63 58.44 58.13 59.95 63.13 64.42 65.47 65.55 66.11 66.63 71.23 72.37 73.29 75.35 75.40 74.56 73.26 73.42 74.66 74.00 74.93 75.47 75.82 76.95 77.47 77.70 77.80 77.78 77.92 77.79 77.86 76.63 75.95 73.57
49.22 51.49 44.07 52.82 56.15 55.21 53.75 54.60 55.41 55.82 57.05 58.35 58.82 60.47 61.77 62.70 64.35 64.53 66.02 66.30 67.60 69.73 73.30 75.10 76.18 75.71 75.80 75.14 75.03 74.71 76.82 76.08 76.78 77.77 77.72 77.84 77.79 77.72 78.02 77.96 77.01 75.93 74.23 71.35
48.58 47.64 51.72 53.19 55.82 55.94 54.27 53.89 57.68 57.01 58.59 57.91 59.50 59.84 60.19 62.14 63.03 64.03 65.09 69.05 68.12 66.59 73.28 75.07 75.77 76.17 76.77 75.68 75.26 76.99 75.91 78.55 77.73 79.93 78.87 78.65 78.37 78.15 77.99 76.53 74.50 73.28 71.44 68.81
50.60 46.19 45.31 54.53 57.74 61.06 59.45 52.48 60.79 61.80 60.47 59.64 60.26 55.00 57.28 62.89 63.27 63.03 63.91 65.87 69.09 67.55 74.54 76.19 76.49 76.73 76.15 76.64 75.98 75.01 77.56 78.23 80.00 79.97 79.39 78.62 78.36 77.36 75.02 73.52 72.80 72.32 69.52 68.87
49.35 47.61 50.64 57.63 59.55 59.99 50.06 53.92 63.18 63.36 63.36 62.83 61.20 63.76 66.57 66.72 70.25 67.78 65.12 67.35 75.37 75.60 74.74 76.17 77.02 76.94 76.03 76.51 76.28 77.37 78.88 78.76 79.46 79.58 79.28 78.91 78.15 75.73 73.16 73.41 73.82 71.05 69.25 69.08
51.22 47.97 45.02 59.69 58.36 53.96 61.20 63.43 63.09 63.22 63.64 63.67 66.00 66.16 66.56 68.54 70.03 70.80 69.91 71.36 75.31 75.79 76.64 77.38 77.69 77.31 76.71 76.77 78.33 78.99 78.31 78.09 78.25 78.49 76.83 76.64 75.40 73.73 73.66 72.44 70.90 69.94 69.19 68.77
50.87 51.72 60.75 63.88 62.98 64.30 64.61 63.80 64.01 64.08 64.14 64.54 64.22 65.41 66.09 69.20 69.11 69.89 70.92 74.50 74.30 75.67 76.42 77.37 78.61 77.17 76.25 77.38 77.47 77.16 76.89 76.83 77.03 76.49 75.43 74.93 73.26 72.69 71.96 71.79 70.19 68.94 69.30 69.05
52.07 57.67 60.70 61.90 62.92 64.18 64.72 64.92 65.77 67.95 67.94 67.02 64.89 66.13 67.47 69.51 70.66 72.31 73.12 73.66 74.02 73.83 74.23 74.86 76.14 76.91 77.33 77.52 77.48 76.87 76.12 75.23 74.53 72.90 72.07 72.99 72.33 71.82 70.47 69.80 68.97 69.22 69.31 70.33
54.25 61.12 61.65 62.22 63.46 64.18 64.85 66.41 66.73 66.41 65.74 66.45 66.94 67.47 69.18 70.88 71.75 71.83 72.17 72.74 73.54 73.46 74.23 75.16 76.61 76.19 76.68 77.20 76.67 74.21 73.21 72.49 71.22 70.41 70.30 68.51 61.72 64.37 69.29 61.05 61.08 70.06 70.11 69.29
54.08 55.57 60.54 59.76 62.46 63.79 62.57 62.93 63.75 63.48 62.56 63.43 64.21 63.54 64.92 67.95 69.47 70.25 70.58 70.91 71.01 72.67 73.44 73.83 74.43 74.72 75.70 76.35 74.89 73.57 71.63 70.84 69.53 69.58 68.55 67.15 63.73 60.04 45.90 46.91 44.87 44.73 47.13 62.22
52.19 54.43 54.75 57.59 58.33 61.63 61.03 60.85 61.85 61.78 62.40 61.35 62.85 61.12 61.65 63.06 64.84 64.78 67.53 69.35 71.51 72.58 73.27 73.20 73.30 73.06 74.65 75.75 74.94 72.96 71.26 71.28 70.38 68.73 69.28 67.86 66.39 64.75 60.59 52.01 44.86 43.53 43.85 49.03
55.74 54.35 51.48 53.45 54.44 57.72 58.26 58.87 58.58 59.54 59.88 60.38 60.92 60.41 59.61 60.88 62.22 65.50 67.97 69.87 71.85 72.44 72.34 72.53 71.67 71.48 72.90 73.50 73.83 74.01 72.59 64.27 70.17 69.58 69.68 69.20 68.77 67.51 66.76 63.23 61.16 58.47 46.17 48.39
55.16 55.36 54.73 55.04 55.51 55.59 56.50 57.75 57.16 57.19 57.98 58.71 60.60 60.65 60.82 60.85 61.39 63.30 65.51 69.56 70.61 70.67 70.74 71.98 71.67 71.81 73.30 73.25 73.41 71.45 70.97 69.36 68.19 70.28 69.94 67.87 68.38 68.18 66.32 64.43 63.68 59.09 54.11 49.45
53.58 54.33 54.22 52.70 52.22 53.34 53.91 54.70 54.61 53.94 56.32 57.47 58.89 60.07 61.61 62.47 63.02 63.22 64.34 65.83 67.14 68.42 70.41 69.32 69.47 70.84 71.06 71.21 71.56 71.10 70.63 64.27 66.07 68.80 66.04 67.37 66.72 66.13 65.71 65.50 61.04 59.20 58.93 56.97
50.27 48.77 49.36 48.87 50.74 53.09 52.09 53.70 52.74 54.79 53.05 55.18 58.70 59.40 61.46 62.16 62.78 63.37 64.55 64.57 66.35 67.33 69.11 69.98 70.62 71.05 70.84 70.88 72.08 68.48 67.00 67.70 61.98 67.50 65.60 66.03 65.34 64.82 64.78 64.43 63.49 62.34 59.68 58.49
53.22 54.06 53.30 51.91 50.58 49.87 50.41 52.66 54.10 55.64 54.66 54.64 57.60 60.37 60.92 61.01 61.28 62.48 64.78 65.39 65.74 67.11 67.52 68.82 69.69 70.64 68.55 68.56 67.92 68.13 65.36 65.42 65.52 65.26 65.45 65.10 65.89 65.47 64.96 64.02 63.11 62.62 62.91 56.75
54.68 54.35 54.97 55.26 54.88 53.68 52.98 53.70 55.52 56.88 58.17 57.77 57.19 58.68 60.72 61.89 62.21 64.34 63.19 62.46 63.19 63.38 65.49 68.40 63.95 66.86 68.71 65.22 65.36 66.92 65.39 63.85 63.85 62.94 61.27 59.99 61.58 63.59 63.12 63.54 58.91 61.36 61.23 57.77
53.26 54.20 56.18 56.41 56.57 57.14 54.84 55.44 57.05 56.57 58.87 58.90 60.39 59.72 60.81 60.25 62.17 63.45 64.14 63.16 64.70 64.51 66.41 66.29 67.16 67.04 67.50 67.04 64.12 64.64 64.67 62.84 62.94 63.15 62.76 62.70 61.92 62.00 59.90 57.36 61.04 61.04 59.95 59.90
53.82 54.98 55.44 56.55 55.24 56.41 57.23 58.18 58.36 57.48 58.72 59.96 59.35 58.77 60.10 60.87 61.58 61.80 62.12 61.62 64.25 64.57 65.06 62.86 66.65 65.06 65.10 64.28 62.84 63.18 62.25 62.98 60.39 61.60 62.16 59.39 61.27 61.59 60.91 61.81 61.60 61.43 60.23 60.15
54.59 54.57 55.11 55.77 55.10 55.58 56.40 56.87 57.53 59.05 58.98 60.06 59.81 59.82 60.01 59.75 61.34 60.31 62.06 61.12 62.11 56.01 61.03 60.47 60.34 57.83 59.78 59.23 62.89 62.55 61.84 61.60 59.56 58.67 57.60 60.78 59.45 60.29 60.59 58.34 58.15 60.58 60.97 61.19
55.32 56.28 56.16 56.29 55.75 56.86 57.01 57.56 57.45 58.96 59.52 59.86 59.50 59.80 58.77 58.45 59.07 58.03 59.81 59.13 59.92 57.32 61.03 59.40 55.82 57.11 54.38 60.63 60.87 60.37 58.93 59.93 59.12 58.92 58.77 58.67 58.29 58.42 58.50 58.35 58.40 59.89 59.76 59.23
56.63 56.00 54.84 58.02 57.79 57.16 57.18 56.52 57.90 59.48 59.42 59.40 59.23 59.33 60.27 56.34 57.80 59.29 60.06 56.42 54.27 57.84 59.46 57.97 55.38 54.41 51.64 58.57 59.73 59.23 58.94 58.91 58.37 58.03 57.78 52.26 56.67 56.38 55.99 56.34 56.41 57.37 58.19 56.69
53.88 56.85 55.65 55.40 53.51 52.62 55.52 57.06 56.56 55.02 58.57 59.28 58.60 59.58 60.18 58.57 58.57 57.58 58.42 57.77 53.39 56.94 59.61 53.01 53.81 53.42 57.28 57.84 57.99 58.63 59.18 58.53 58.35 58.38 58.65 58.25 56.86 56.53 57.17 56.54 55.88 56.51 56.83 57.20
54.53 53.96 54.67 56.23 54.55 53.49 53.30 53.84 52.48 53.99 54.26 54.14 55.41 55.54 56.63 57.75 58.23 57.78 59.92 57.12 58.97 56.48 57.78 59.59 58.85 57.73 58.71 58.46 57.77 58.06 58.73 58.66 58.31 58.09 55.92 57.99 57.55 56.58 55.94 57.10 56.12 55.91 56.38 55.53
53.51 49.02 52.53 51.61 51.60 51.29 51.53 51.79 51.73 51.08 52.50 53.14 52.43 54.27 54.82 56.16 56.01 55.85 53.79 56.00 56.42 56.18 56.44 58.74 57.29 56.93 56.36 57.44 56.41 57.11 57.03 58.51 52.58 55.75 57.81 57.79 57.38 57.96 57.38 57.41 57.85 57.30 56.47 56.45
MSLP
987.07 987.09 986.72 986.33 986.46 986.93 987.21 987.39 987.36 986.81 986.95 986.93 986.38 987.40 987.56 988.16 988.59 989.34 989.42 989.72 990.49 991.10 991.95 993.07 994.41 995.66 996.81 998.06 999.44 1000.38 1001.47 1002.28 1003.04 1003.74 1004.35 1005.08 1005.82 1006.33 1006.98 1007.53 1008.22 1009.00 1009.75 1010.40
987.05 986.83 986.53 985.94 985.82 985.80 985.95 986.43 986.66 986.90 986.46 986.45 986.46 986.42 986.92 987.57 989.18 988.64 989.00 989.41 989.98 990.76 991.53 992.52 993.65 994.88 995.87 996.92 998.10 999.24 1000.23 1001.09 1001.88 1002.78 1003.50 1004.21 1004.90 1005.62 1006.35 1006.96 1007.65 1008.37 1009.05 1009.67
987.36 987.37 986.60 985.91 984.73 985.24 985.30 985.56 986.01 986.15 985.88 986.36 986.29 986.39 986.39 986.95 987.39 987.61 988.31 988.74 989.34 990.37 991.08 991.67 992.68 993.76 995.03 995.95 997.01 998.25 999.26 1000.16 1000.93 1001.68 1002.56 1003.46 1004.37 1005.14 1005.77 1006.44 1007.16 1007.92 1008.57 1009.33
987.68 987.82 986.40 984.30 985.28 985.43 985.39 985.27 985.31 985.36 985.60 986.08 986.14 986.19 986.48 986.86 987.43 987.63 987.49 987.88 988.46 989.30 990.34 991.25 991.88 993.10 994.23 995.46 996.39 997.35 998.40 999.32 1000.14 1000.85 1001.72 1002.79 1003.74 1004.45 1005.15 1005.87 1006.67 1007.56 1008.39 1009.11
987.29 987.10 986.42 985.77 985.22 985.30 985.05 985.25 985.42 985.26 985.40 985.63 985.90 986.10 985.86 986.15 986.56 986.89 987.42 987.22 987.58 988.18 989.16 990.38 991.29 992.25 993.50 994.69 995.65 996.66 997.52 998.37 999.27 1000.12 1001.22 1002.30 1003.19 1004.05 1004.97 1005.89 1006.76 1007.52 1008.24 1009.11
987.45 987.03 985.78 985.73 985.38 986.25 986.44 986.33 986.26 985.92 985.64 985.70 985.53 985.76 985.83 985.79 985.81 986.09 986.50 986.86 987.00 987.14 988.47 989.76 990.91 991.81 993.05 994.14 995.12 995.94 996.71 997.64 998.64 999.74 1000.86 1001.96 1003.08 1004.17 1005.11 1005.98 1006.76 1007.31 1008.12 1008.83
987.52 987.19 986.67 986.51 986.19 986.74 987.11 987.19 987.24 986.98 986.81 986.70 986.70 986.59 986.55 985.69 985.77 985.44 985.65 986.16 986.83 987.59 988.40 989.44 990.72 991.68 992.88 993.85 994.81 995.70 996.81 997.96 998.96 1000.01 1001.03 1002.10 1003.11 1004.09 1005.15 1006.07 1006.79 1007.46 1008.05 1008.56
987.83 987.45 988.06 987.37 988.41 987.48 987.33 987.43 987.70 987.49 987.25 986.97 986.84 986.89 986.62 986.27 986.02 986.24 985.73 986.02 986.82 988.04 988.85 989.86 990.83 992.08 993.37 994.41 995.45 996.40 997.42 998.37 999.46 1000.55 1001.39 1002.49 1003.59 1004.42 1005.41 1006.15 1006.81 1007.41 1007.90 1008.25
988.56 987.58 987.68 986.50 987.56 987.82 987.91 987.77 987.86 987.78 987.60 987.54 987.41 987.06 986.44 986.20 986.37 986.53 987.28 987.08 987.82 989.33 990.37 991.12 991.69 992.61 993.81 994.96 996.06 997.06 997.95 999.04 1000.11 1001.14 1001.97 1002.94 1003.65 1004.96 1005.74 1006.22 1006.75 1007.24 1007.58 1007.88
990.21 989.04 988.30 988.00 988.29 988.52 988.26 988.21 988.28 988.84 988.95 988.42 987.80 987.52 987.54 987.40 987.55 987.86 988.07 988.42 989.19 990.24 991.60 992.55 993.06 993.72 994.62 995.64 996.63 997.54 998.60 999.81 1000.75 1001.66 1002.63 1003.51 1004.57 1005.28 1005.98 1006.51 1006.93 1007.15 1007.32 1007.70
990.84 989.99 990.10 989.96 989.77 990.04 989.30 989.74 990.18 990.65 990.99 991.07 990.35 990.27 989.60 989.33 989.03 989.03 989.44 990.01 990.74 991.79 992.78 993.76 994.33 994.89 995.59 996.66 997.42 998.28 999.33 1000.43 1001.48 1002.45 1003.33 1004.21 1005.35 1006.24 1006.32 1006.92 1007.20 1007.27 1007.41 1007.63
995.16 994.09 991.34 992.39 991.85 991.41 990.82 991.07 991.48 991.68 992.29 992.92 993.00 993.51 992.95 992.32 991.30 990.99 991.26 991.81 992.79 993.74 994.57 995.14 995.71 996.10 996.51 997.41 998.07 998.74 999.92 1001.06 1001.97 1002.80 1003.82 1004.55 1005.61 1006.88 1007.53 1007.58 1007.64 1007.64 1007.29 1007.06
997.38 997.03 993.47 993.95 993.18 992.81 992.17 992.24 992.51 993.11 993.60 994.46 994.76 994.32 994.70 994.13 993.13 992.90 993.26 993.86 994.45 994.98 995.71 996.20 996.83 997.46 997.59 997.89 998.39 999.15 1000.06 1000.98 1001.56 1002.50 1003.25 1004.14 1004.85 1005.68 1007.00 1008.25 1007.84 1007.95 1008.02 1008.14
998.39 997.52 996.97 996.14 996.63 995.85 994.36 994.34 994.68 994.82 994.85 995.07 995.18 995.75 995.61 995.15 995.53 995.02 995.08 995.69 995.73 996.24 996.66 997.14 997.51 997.97 998.24 998.37 998.99 999.23 999.56 1000.29 1001.03 1001.21 1002.10 1002.90 1003.42 1004.29 1005.14 1006.41 1007.10 1008.09 1008.88 1009.15
998.55 999.54 999.97 1000.15 1000.12 998.47 996.64 996.72 996.45 996.63 996.97 996.87 996.59 996.70 996.94 997.33 997.26 996.81 996.35 996.51 996.80 996.85 997.29 997.28 997.82 998.45 999.04 998.77 999.01 999.24 999.76 1000.09 999.88 1000.35 1001.09 1001.93 1002.54 1003.03 1003.91 1005.00 1005.72 1007.21 1008.91 1009.48
1000.19 999.77 999.88 999.83 999.52 998.95 999.28 999.36 998.99 999.28 998.76 998.52 998.19 998.10 997.91 997.91 997.79 997.64 997.70 997.51 997.22 997.45 997.77 997.81 998.67 998.62 999.26 999.56 999.25 999.64 999.87 999.99 1000.31 1000.15 1000.99 1001.59 1002.00 1002.50 1003.03 1003.69 1005.28 1006.47 1007.43 1008.04
1000.54 1001.17 1001.36 1001.48 1001.31 1001.18 1001.40 1000.91 1000.81 1000.68 1000.50 1000.32 999.52 999.31 998.91 998.59 998.53 998.62 998.44 998.41 998.29 998.12 998.22 998.98 998.66 998.74 999.07 999.98 999.54 999.89 999.68 1000.56 1000.71 1000.19 1000.95 1001.54 1001.86 1002.41 1002.64 1003.00 1003.93 1005.30 1006.17 1007.07
1001.67 1001.78 1001.95 1001.98 1001.75 1001.67 1001.67 1001.64 1001.67 1001.76 1002.14 1002.15 1000.83 999.85 999.60 999.26 999.34 999.34 998.84 998.43 999.20 999.33 999.56 999.56 999.68 999.55 999.62 999.90 1000.06 999.50 999.87 1000.43 1000.50 1000.51 1000.92 1001.51 1001.62 1002.09 1002.43 1002.75 1003.46 1004.59 1005.08 1006.41
1001.48 1001.41 1001.40 1001.09 1001.13 1001.46 1001.52 1001.81 1001.75 1002.07 1001.89 1002.07 1001.55 1000.43 1000.11 999.74 999.68 999.56 999.30 999.50 999.82 1000.16 1000.34 1000.13 1000.28 1000.33 1000.12 999.91 1000.20 1000.14 999.96 1000.28 1000.30 1001.21 1001.52 1001.58 1002.31 1002.41 1003.08 1003.32 1004.26 1005.18 1005.25 1006.30
1001.17 1000.74 1000.22 1000.21 1000.72 1000.89 1001.52 1001.69 1001.93 1002.11 1001.45 1001.43 1001.21 1001.01 1000.95 1000.46 999.99 999.95 999.65 1000.32 1000.60 1000.85 1000.70 1000.68 1000.54 1000.63 1000.38 1000.28 1000.47 1000.57 1000.42 1000.96 1001.01 1001.52 1001.85 1002.13 1002.61 1003.09 1003.87 1003.94 1004.28 1004.51 1005.25 1005.84
1001.26 1000.87 1000.65 1001.20 1001.53 1001.33 1001.41 1001.48 1001.76 1001.84 1001.84 1001.57 1001.42 1001.30 1001.25 1001.01 1000.79 1000.65 1000.83 1001.13 1001.17 1001.25 1001.13 1001.10 1001.40 1001.12 1000.89 1000.62 1000.81 1000.78 1001.24 1001.32 1001.85 1002.18 1001.93 1002.35 1002.81 1002.90 1003.08 1003.13 1003.41 1003.80 1004.90 1005.15
1001.77 1001.42 1001.26 1001.31 1001.47 1001.91 1002.22 1002.56 1002.47 1002.37 1002.20 1002.06 1001.92 1001.80 1001.61 1001.39 1001.30 1001.40 1001.58 1001.55 1001.50 1001.59 1001.58 1001.54 1001.70 1001.83 1001.51 1001.59 1001.01 1000.89 1001.24 1001.53 1001.73 1001.64 1002.36 1002.30 1002.35 1002.69 1002.66 1003.08 1003.52 1003.66 1003.75 1004.30
1002.38 1002.23 1002.09 1002.05 1002.16 1002.27 1002.48 1002.63 1002.66 1002.45 1002.32 1002.16 1002.02 1001.86 1001.66 1001.60 1001.71 1001.68 1001.93 1002.41 1002.28 1002.24 1002.08 1002.22 1002.20 1002.31 1002.32 1001.60 1001.23 1001.01 1001.08 1001.40 1001.73 1001.92 1002.47 1002.42 1002.66 1002.85 1002.91 1003.07 1003.09 1003.63 1003.92 1003.92
1002.96 1003.12 1002.88 1002.66 1002.59 1002.63 1002.73 1002.61 1002.38 1002.30 1002.34 1002.28 1002.25 1002.18 1001.86 1001.67 1001.74 1001.88 1002.30 1002.56 1002.60 1002.50 1002.42 1002.41 1002.74 1002.58 1002.73 1002.02 1001.69 1001.39 1001.41 1001.77 1002.11 1002.55 1002.55 1002.66 1002.65 1002.94 1003.05 1003.17 1003.20 1003.50 1003.74 1003.80
1003.72 1003.32 1003.19 1003.17 1003.31 1003.28 1003.02 1002.93 1002.88 1002.67 1002.74 1002.66 1002.45 1002.45 1002.31 1002.14 1001.95 1001.94 1002.07 1002.79 1002.57 1002.63 1002.71 1002.78 1002.84 1002.96 1002.63 1002.39 1002.08 1001.61 1001.72 1002.08 1002.39 1002.40 1002.10 1002.30 1002.12 1002.42 1002.72 1003.05 1003.28 1003.42 1003.61 1003.75
1004.17 1003.89 1004.05 1004.22 1004.13 1004.00 1003.79 1003.71 1003.66 1003.43 1003.33 1003.20 1003.09 1002.98 1002.59 1002.47 1002.71 1002.35 1002.41 1002.34 1002.11 1002.16 1002.07 1002.29 1002.64 1002.86 1002.38 1002.06 1001.93 1001.67 1001.90 1002.01 1002.23 1002.23 1002.18 1002.03 1001.96 1002.27 1002.68 1002.72 1002.97 1003.30 1003.45 1003.58
1004.81 1005.10 1004.94 1005.15 1005.21 1005.15 1004.79 1004.73 1004.48 1004.40 1004.32 1004.10 1003.90 1003.79 1003.33 1002.95 1002.81 1002.65 1002.68 1002.72 1002.50 1002.41 1002.44 1002.30 1002.65 1002.76 1003.00 1002.60 1002.32 1002.29 1002.53 1002.23 1002.90 1002.69 1001.81 1002.11 1002.28 1002.38 1002.27 1002.39 1002.60 1002.75 1003.20 1003.42
Wind_Speed
27 28 25 26 27 27 26 23 23 19 26 19 23 15 20 14 14 13 8 10 6 6 11 18 18 20 21 20 21 21 21 21 20 18 18 16 16 16 16 16 14 14 12 12
22 24 27 27 26 27 28 29 26 25 26 20 21 19 14 13 21 12 11 9 14 12 9 12 18 20 21 20 22 19 19 21 19 18 18 17 16 15 14 13 14 13 14 14
19 24 24 25 27 22 21 24 24 22 22 18 20 16 14 8 9 13 13 11 8 12 12 10 15 19 21 21 18 19 16 18 18 17 17 16 15 14 13 14 12 14 13 11
17 18 25 17 18 25 24 21 20 22 20 17 19 18 16 14 9 11 16 15 12 10 13 11 15 18 18 18 16 17 13 16 16 15 16 15 14 14 12 10 12 9 8 7
15 19 18 21 15 9 17 19 16 21 17 18 17 17 18 17 15 15 14 12 13 14 17 14 15 15 15 18 18 13 18 14 16 14 15 14 14 12 9 8 7 6 4 7
13 18 25 17 17 7 8 6 10 11 10 9 16 15 13 15 16 18 18 13 9 16 15 16 14 15 16 16 18 18 14 14 11 11 13 13 12 10 8 7 5 6 6 7
13 14 18 5 9 12 12 5 6 7 9 10 9 9 14 10 11 14 16 14 1 9 13 16 15 16 16 15 16 14 11 11 9 9 10 10 9 7 7 6 6 6 7 8
11 10 8 21 12 20 4 2 3 6 9 9 10 12 13 4 4 8 2 3 10 8 11 13 13 13 13 11 10 9 11 11 10 9 8 8 9 7 7 7 7 6 5 4
11 9 6 8 9 7 5 4 7 8 10 11 13 13 10 6 2 6 4 7 10 12 9 8 9 13 12 11 11 12 12 12 11 10 7 10 10 8 7 7 6 6 6 6
13 11 1 8 8 5 7 11 9 18 20 11 10 7 3 6 5 7 8 9 13 14 12 11 12 12 13 13 13 13 14 12 11 10 10 8 7 7 7 6 5 5 4 4
13 13 12 12 12 5 11 18 17 20 22 22 25 24 15 8 9 12 13 14 12 13 12 12 13 14 13 13 13 14 12 11 10 9 9 8 7 3 4 5 2 4 5 5
7 16 12 11 10 13 18 18 19 19 20 19 18 19 20 14 14 16 14 14 13 12 12 12 12 12 11 12 12 14 12 9 8 8 7 7 7 7 14 10 8 10 8 7
5 15 15 15 21 16 19 19 19 18 17 17 12 15 14 9 13 10 10 10 12 11 11 11 11 9 9 9 11 14 13 11 9 11 10 9 9 8 7 5 10 13 11 9
9 14 17 22 15 14 19 19 19 18 16 13 12 12 12 15 9 9 12 11 10 10 10 12 12 10 8 10 9 10 11 14 11 10 10 10 10 9 9 8 7 5 11 8
11 13 13 12 12 17 23 20 18 17 16 15 14 12 11 8 7 7 8 6 8 9 7 11 11 10 8 9 8 8 6 4 5 4 9 11 8 7 10 10 10 9 7 5
12 14 16 17 18 19 18 18 19 19 18 12 12 12 11 9 8 7 7 9 5 8 9 9 7 8 10 5 6 5 4 2 5 6 5 5 6 5 6 6 11 9 9 9
16 13 11 12 13 13 12 12 12 11 16 19 10 7 8 10 10 7 7 8 8 8 8 7 7 6 7 3 2 6 5 4 4 5 6 6 6 6 6 6 10 9 8 10
10 13 14 12 11 8 8 7 6 6 4 14 17 9 7 8 5 4 6 7 4 9 9 9 5 5 6 3 5 2 7 6 4 4 6 5 6 3 3 2 6 8 7 10
5 4 6 7 10 7 6 4 2 6 6 7 10 8 10 5 3 3 4 7 6 5 4 5 7 3 2 7 5 6 4 6 5 3 5 8 1 4 5 5 8 3 7 9
9 11 7 11 7 8 8 7 3 6 2 1 4 5 4 6 9 4 7 7 7 2 3 5 5 4 3 4 6 5 4 7 8 7 6 5 2 6 5 2 9 8 8 8
8 10 10 19 7 6 5 9 6 6 5 6 5 5 5 5 6 8 5 4 4 5 6 4 3 1 3 2 4 6 3 6 4 4 6 3 3 8 10 10 4 5 9 7
12 11 12 13 12 7 9 7 4 6 5 6 6 6 5 5 8 7 6 5 6 6 7 7 6 10 7 9 5 4 5 4 2 3 2 3 3 4 1 4 4 4 3 4
7 6 9 9 7 8 7 5 5 5 4 4 5 6 4 3 3 4 4 8 6 7 6 5 8 10 11 4 7 2 4 5 2 3 1 2 2 3 3 5 4 1 5 6
6 8 5 7 5 5 5 6 5 5 2 3 5 4 4 3 4 4 4 6 6 4 6 4 4 7 8 5 8 3 2 4 4 4 2 3 1 3 4 4 3 4 5 3
2 9 10 10 8 7 7 7 5 7 6 6 3 3 5 5 5 4 3 5 5 3 6 8 7 2 4 5 8 6 1 3 5 5 2 3 1 2 3 3 4 3 3 5
10 8 8 10 10 10 9 9 7 6 10 3 5 7 7 3 4 5 1 4 4 4 5 8 6 6 8 7 6 7 3 4 3 5 5 5 2 3 5 4 3 3 4 5
9 12 9 9 9 9 7 7 8 9 9 9 9 9 10 10 7 7 10 9 7 4 4 4 2 1 9 12 4 4 9 7 11 8 2 2 4 4 5 4 3 4 4 4
Wind_Direction
217 249 239 231 219 225 224 237 245 239 243 247 250 216 193 207 175 207 219 145 170 193 179 183 179 181 181 185 188 190 191 195 198 201 202 203 205 203 205 207 201 206 197 202
250 235 238 250 228 229 221 225 236 251 258 244 249 253 252 176 208 204 217 216 177 188 181 176 177 183 184 185 185 191 192 195 196 197 198 202 201 206 198 207 200 200 199 203
239 241 246 237 241 245 241 225 227 236 248 260 262 257 246 214 240 203 191 211 173 188 194 194 179 179 184 188 180 191 190 191 195 192 194 196 197 196 204 198 199 198 203 204
233 231 237 247 232 232 248 257 246 233 230 234 258 268 270 270 260 246 208 202 216 200 182 191 189 177 181 181 188 185 184 188 192 190 187 188 191 197 194 188 194 192 191 176
226 229 243 233 215 274 232 236 261 250 259 251 235 251 261 263 255 252 260 219 202 220 177 179 184 181 176 182 185 185 188 183 190 177 174 178 184 181 181 170 176 185 165 156
214 225 234 223 241 97 33 276 334 355 342 319 249 230 240 266 259 243 248 246 254 225 160 163 176 175 175 181 184 194 186 182 158 157 164 168 169 157 148 154 172 163 152 170
221 227 234 286 156 145 195 205 6 357 352 340 320 314 312 266 360 265 227 227 271 138 154 162 170 166 175 175 185 186 159 157 152 151 151 152 142 130 131 164 169 164 168 185
231 195 249 125 154 232 32 41 321 338 335 331 312 297 290 275 81 345 23 148 142 148 145 152 159 148 156 158 149 144 140 142 135 136 147 129 126 120 145 147 145 158 166 179
257 262 227 78 80 108 146 105 22 351 331 315 291 277 281 158 187 124 260 113 112 103 111 123 111 132 135 126 130 131 130 127 126 127 102 121 132 141 143 153 162 168 182 194
224 230 205 148 117 108 86 63 55 42 25 328 270 266 116 115 123 115 100 93 102 110 105 107 108 114 116 122 123 126 118 110 112 105 108 113 114 141 141 155 170 194 192 160
242 153 116 75 71 33 84 75 57 57 50 37 37 22 37 60 104 105 98 97 99 109 115 113 104 109 110 113 114 107 107 110 109 115 120 105 62 48 131 72 340 194 188 166
351 334 113 137 103 83 79 67 63 63 59 52 50 39 22 21 53 61 72 84 90 92 95 100 100 106 117 125 128 128 131 131 134 133 125 125 123 101 41 51 41 39 37 110
106 30 24 63 64 71 80 71 75 76 79 70 59 69 34 346 23 58 80 85 110 114 118 119 113 115 130 133 133 133 140 154 155 150 156 159 158 151 137 69 70 57 46 59
97 80 47 21 47 51 74 68 72 64 59 63 84 90 83 350 22 47 57 88 96 119 126 124 129 125 127 124 141 168 149 161 168 169 169 172 167 174 161 167 157 121 44 80
95 100 102 92 62 57 54 52 56 62 51 43 38 51 76 77 56 43 39 83 118 116 112 108 117 132 145 146 152 116 138 163 154 188 155 168 174 172 162 174 164 129 135 126
76 79 75 61 51 44 48 45 45 21 17 48 42 26 44 56 73 66 41 19 45 131 138 131 142 133 143 157 145 144 136 249 218 133 129 126 139 182 204 154 137 151 167 159
95 79 71 70 65 62 48 36 31 20 6 349 15 28 31 55 48 31 55 41 22 30 12 127 112 96 102 127 200 166 148 141 15 139 141 165 169 203 213 196 152 162 167 162
93 111 116 115 94 71 62 38 9 12 28 321 322 350 71 69 38 9 40 68 28 64 36 28 38 96 120 177 262 270 151 166 179 239 153 171 173 187 190 160 134 177 162 155
144 127 133 122 127 122 95 110 10 251 215 181 291 343 344 52 111 55 79 57 39 72 33 51 4 1 22 46 354 309 133 170 169 99 82 106 16 152 86 81 101 169 134 144
32 341 77 88 101 140 185 216 236 289 311 102 59 25 0 358 18 37 62 74 76 68 69 64 35 53 335 52 2 305 97 43 65 82 70 46 24 82 21 180 156 149 153 161
58 48 75 92 85 34 45 42 86 71 41 39 40 18 0 6 63 38 55 72 63 32 44 48 66 333 198 129 265 80 61 125 74 296 140 203 224 188 190 222 178 183 174 164
48 47 64 72 74 88 91 90 52 64 56 37 39 7 359 40 51 59 50 30 86 21 66 41 60 37 35 344 273 124 134 119 313 84 30 226 154 287 40 150 183 235 181 213
85 63 51 50 67 65 58 97 85 70 82 45 29 358 22 95 88 83 47 60 41 35 68 63 49 29 7 317 301 131 79 94 58 67 12 3 335 316 324 316 327 268 218 197
80 58 16 72 62 67 54 7 51 80 66 36 40 6 6 45 74 100 94 108 137 15 76 62 46 16 3 322 301 294 152 155 170 216 197 91 315 281 287 302 288 276 268 257
21 61 35 28 44 18 19 65 20 336 70 358 347 328 3 342 37 25 31 115 167 199 156 176 186 233 278 285 295 293 327 306 311 340 273 183 195 297 255 246 289 285 317 332
26 50 59 42 28 11 18 5 0 17 360 30 30 346 348 67 26 305 161 261 289 200 246 164 194 206 254 260 252 279 179 260 262 271 287 291 218 205 278 297 243 258 268 249
69 34 32 30 27 1 9 360 10 354 17 8 358 348 329 1 13 350 19 357 1 30 358 89 317 303 15 350 333 341 359 27 43 354 189 177 263 257 285 288 283 197 204 250